Location: Tucson
(32.2220°N, 110.9260°W)
Time: 11:40:48
(UTC-07:00)

GENESIS II - Visible Passes

Search period start: 22 July 2018 00:00
Search period end: 01 August 2018 00:00
Orbit: 502 x 530 km, 64.5° (Epoch: 22 July)

Date Brightness Start Highest point End Pass type
(mag) Time Alt. Az. Time Alt. Az. Time Alt. Az.
22 Jul 6.4 20:17:00 10° NNE 20:19:16 15° NE 20:21:30 10° E visible
22 Jul 5.5 21:53:22 10° NW 21:56:31 36° W 21:56:31 36° W visible
23 Jul 6.3 20:01:16 10° NNE 20:03:37 15° NE 20:05:57 10° E visible
23 Jul 5.3 21:37:44 10° NW 21:41:25 37° WSW 21:41:31 37° WSW visible
24 Jul 5.3 21:22:05 10° NW 21:25:45 36° WSW 21:26:36 32° SW visible
25 Jul 5.5 21:06:27 10° NW 21:10:05 35° WSW 21:11:45 24° SSW visible
26 Jul 5.6 20:50:48 10° NW 20:54:25 34° WSW 20:56:58 17° S visible
27 Jul 5.7 20:35:09 10° NW 20:38:45 33° WSW 20:42:17 10° S visible
28 Jul 5.8 20:19:30 10° NW 20:23:04 32° WSW 20:26:36 10° S visible
29 Jul 6.0 20:03:52 10° NW 20:07:24 31° WSW 20:10:55 10° S visible
30 Jul 6.1 19:48:14 10° NW 19:51:44 30° WSW 19:55:12 10° S visible
